STARLINK-32203, 60331

Orbit data source: Space-Track

STARLINK-32203, 60331 is a payload satellite owned by SpaceX/Seattle (US) in LEO that was launched on Fri, 02 Aug 2024 UTC via an FALCON 9 launch vehicle from the Air Force Eastern Test Range (AFETR). Payload-class satellites include a variety of spacecraft equipped with specific instruments for various scientific and technological missions. These include communications satellites like Starlink; space stations such as the ISS; scientific satellites like the Hubble; Earth observation satellites from companies like Planet Labs, Umbra, and HawkEye 360; GPS; miniature CubeSats for education and research; and military/defense satellites.

Loading next visibility...
Identifier
60331, 2024-136C
Orbit
LEO
Country
Flag of USUS
Related business
Manufacturer
SpaceX/Seattle
Mission
Operational Commercial Communications
Bus & Motor
STARLINK V2M, Unknown motor
Mass
730 kg wet, ~700 kg dry
Launch date (UTC)
2024-08-02 (1 year ago)
Launch vehicle
FALCON 9
Launch site
Air Force Eastern Test Range (AFETR)
Object type
Payload
Rocket body
Debris
Shape & HBR
Box + 2 Pan, 17.7 m
Radar Cross Section
33.884 m², Large (>1 m²)

Expand to show TLE details & history
Last TLE update: 14 hours ago

TLE from 14 hours ago
0 STARLINK-32203
1 60331U 24136C   25353.92671088  .00000002  00000-0  12188-4 0  9994
2 60331  53.1615  76.1355 0001158  72.7365 287.3762 15.30192169 77598
Epoch: 2025-12-19T22:14Z
TLE epoch observation values (Epoch: 2025-12-19T22:14:27.820Z)
Latitude
-0.00003°
Longitude
13.75871°
Altitude
475.901 km
Speed
7.629 km/s
True Right ascension
05h 04m 32s
True Declination
0° 00' 00"
Sunlit
Object was in full shadow at epoch
Visualization orbit readout
Latitude
Unknown
Longitude
Unknown
Altitude
Unknown
Speed
Unknown
Apparent Right ascension
Unknown
Apparent Declination
Unknown
Sunlit
N/A
Visualization observer readout
Local Sidereal Time
11:24:14
Azimuth
Unknown
Elevation
Unknown
Doppler factor
Unknown
Orbital elements
Apogee altitude
476.288 km
Perigee altitude
474.701 km
Semi-major axis
6,853.632 km
Eccentricity
0.00012
Inclination
53.1615°
RAAN
76.1355°
Arg. of periapsis
72.7365°
True anomaly
287.36354°
Mean anomaly
287.3762°
Eccentric anomaly
287.36987°
Mean motion
3.82527 °/min
Orbital period
94.11 mins
BSTAR
0.000012188
Loading maneuver chart data...
Computing Atmospheric mass density...
Loading historical data...
Loading historical data...
Loading historical data...
Loading historical data...
Loading historical data...
Loading historical data...
Loading historical data...

Documentation

Showing up to 5 results
|